When you browse on this site, cookies collect data to enhance your experience and personalize the content and advertising you see.
Visit our Privacy Policy to learn more. By continuing to use the site, you agree to this use of cookies and data.

Hourly Weather Orizatlan

Today, 15 August, Saturday

Time Temperature Precipitation Wind Pressure Humidity
00:00 +24°C° 0 mm 1 mps 744 mmHg 91%
01:00 +24°C° 0 mm 1 mps 743 mmHg 90%
02:00 +23°C° 0 mm 1 mps 743 mmHg 90%
03:00 +23°C° 0 mm 1 mps 743 mmHg 89%
04:00 +23°C° 0 mm 1 mps 743 mmHg 88%
05:00 +23°C° 0 mm 1 mps 744 mmHg 88%
06:00 +25°C° 0 mm 1 mps 744 mmHg 82%
07:00 +27°C° 0 mm 1 mps 744 mmHg 76%
08:00 +27°C° 0 mm 0 mps 744 mmHg 70%
09:00 +30°C° 0 mm 1 mps 744 mmHg 67%
10:00 +31°C° 0 mm 1 mps 744 mmHg 63%
11:00 +34°C° 0 mm 2 mps 744 mmHg 60%
12:00 +34°C° 0.1 mm 2 mps 743 mmHg 60%
13:00 +34°C° 0.1 mm 2 mps 743 mmHg 61%
14:00 +34°C° 0.1 mm 2 mps 742 mmHg 61%
15:00 +32°C° 1.1 mm 2 mps 742 mmHg 70%
16:00 +30°C° 1.1 mm 2 mps 742 mmHg 78%
17:00 +29°C° 1.1 mm 1 mps 743 mmHg 87%
18:00 +28°C° 0.5 mm 1 mps 743 mmHg 89%
19:00 +27°C° 0.5 mm 1 mps 744 mmHg 91%
20:00 +26°C° 0.5 mm 1 mps 745 mmHg 92%
21:00 +26°C° 0.2 mm 1 mps 745 mmHg 92%
22:00 +25°C° 0.2 mm 1 mps 745 mmHg 92%
23:00 +25°C° 0.2 mm 1 mps 745 mmHg 92%

Tomorrow, 16 August, Sunday

Time Temperature Precipitation Wind Pressure Humidity
00:00 +25°C° 0 mm 1 mps 745 mmHg 92%
01:00 +24°C° 0 mm 1 mps 744 mmHg 92%
02:00 +24°C° 0 mm 1 mps 744 mmHg 92%
03:00 +24°C° 0 mm 1 mps 744 mmHg 92%
04:00 +24°C° 0 mm 1 mps 744 mmHg 92%
05:00 +23°C° 0 mm 1 mps 744 mmHg 93%
06:00 +25°C° 0 mm 1 mps 745 mmHg 88%
07:00 +27°C° 0 mm 1 mps 745 mmHg 83%
08:00 +28°C° 0 mm 1 mps 745 mmHg 79%
09:00 +29°C° 0 mm 1 mps 745 mmHg 75%
10:00 +30°C° 0 mm 1 mps 745 mmHg 72%
11:00 +31°C° 0 mm 2 mps 745 mmHg 68%
12:00 +32°C° 0.5 mm 2 mps 744 mmHg 69%
13:00 +32°C° 0.5 mm 2 mps 744 mmHg 70%
14:00 +32°C° 0.5 mm 2 mps 743 mmHg 71%
15:00 +30°C° 2.4 mm 2 mps 743 mmHg 77%
16:00 +29°C° 2.4 mm 1 mps 743 mmHg 84%
17:00 +28°C° 2.4 mm 1 mps 743 mmHg 90%
18:00 +27°C° 1 mm 1 mps 744 mmHg 91%
19:00 +27°C° 1 mm 1 mps 745 mmHg 91%
20:00 +26°C° 1 mm 1 mps 745 mmHg 92%
21:00 +26°C° 0 mm 1 mps 745 mmHg 92%
22:00 +25°C° 0 mm 1 mps 746 mmHg 92%
23:00 +25°C° 0 mm 1 mps 746 mmHg 92%

Day after tomorrow, 17 August, Monday

Time Temperature Precipitation Wind Pressure Humidity
00:00 +25°C° 0 mm 1 mps 745 mmHg 92%
01:00 +25°C° 0 mm 1 mps 745 mmHg 92%
02:00 +24°C° 0 mm 1 mps 745 mmHg 91%
03:00 +24°C° 0 mm 1 mps 745 mmHg 92%
04:00 +24°C° 0 mm 1 mps 745 mmHg 92%
05:00 +24°C° 0 mm 1 mps 745 mmHg 93%
06:00 +25°C° 0 mm 1 mps 745 mmHg 87%
07:00 +25°C° 0 mm 0 mps 746 mmHg 82%
08:00 +27°C° 0 mm 0 mps 746 mmHg 77%
09:00 +30°C° 0 mm 1 mps 746 mmHg 73%
10:00 +31°C° 0 mm 1 mps 746 mmHg 69%
11:00 +32°C° 0 mm 1 mps 745 mmHg 64%
12:00 +34°C° 0.1 mm 2 mps 745 mmHg 64%
13:00 +34°C° 0.1 mm 2 mps 745 mmHg 63%
14:00 +34°C° 0.1 mm 2 mps 744 mmHg 63%
15:00 +32°C° 0.8 mm 2 mps 744 mmHg 70%
16:00 +31°C° 0.8 mm 2 mps 744 mmHg 77%
17:00 +30°C° 0.8 mm 2 mps 744 mmHg 84%
18:00 +28°C° 0.8 mm 2 mps 744 mmHg 86%
19:00 +27°C° 0.8 mm 1 mps 745 mmHg 89%
20:00 +26°C° 0.8 mm 1 mps 745 mmHg 92%
21:00 +26°C° 0.1 mm 1 mps 745 mmHg 92%
22:00 +25°C° 0.1 mm 1 mps 745 mmHg 92%
23:00 +25°C° 0.1 mm 1 mps 745 mmHg 92%

18 August, Tuesday

Time Temperature Precipitation Wind Pressure Humidity
00:00 +25°C° 0 mm 1 mps 745 mmHg 91%
01:00 +25°C° 0 mm 1 mps 744 mmHg 91%
02:00 +24°C° 0 mm 1 mps 744 mmHg 91%
03:00 +24°C° 0 mm 1 mps 744 mmHg 91%
04:00 +24°C° 0 mm 1 mps 744 mmHg 91%
05:00 +24°C° 0 mm 1 mps 744 mmHg 91%
06:00 +26°C° 0 mm 1 mps 745 mmHg 84%
07:00 +26°C° 0 mm 0 mps 745 mmHg 78%
08:00 +28°C° 0 mm 0 mps 746 mmHg 71%
09:00 +31°C° 0 mm 1 mps 745 mmHg 67%
10:00 +32°C° 0 mm 1 mps 745 mmHg 62%
11:00 +34°C° 0 mm 2 mps 744 mmHg 58%
12:00 +34°C° 0.1 mm 2 mps 744 mmHg 58%
13:00 +34°C° 0.1 mm 2 mps 743 mmHg 57%
14:00 +34°C° 0.1 mm 2 mps 743 mmHg 57%
15:00 +33°C° 0.1 mm 1 mps 742 mmHg 61%
16:00 +32°C° 0.1 mm 1 mps 742 mmHg 65%
17:00 +32°C° 0.1 mm 1 mps 742 mmHg 69%
18:00 +30°C° 0 mm 1 mps 743 mmHg 73%
19:00 +28°C° 0 mm 1 mps 743 mmHg 78%
20:00 +26°C° 0 mm 1 mps 744 mmHg 82%
21:00 +26°C° 0 mm 1 mps 744 mmHg 82%
22:00 +26°C° 0 mm 1 mps 744 mmHg 82%
23:00 +25°C° 0 mm 1 mps 744 mmHg 83%

19 August, Wednesday

Time Temperature Precipitation Wind Pressure Humidity
00:00 +25°C° 0 mm 1 mps 743 mmHg 82%
01:00 +25°C° 0 mm 1 mps 743 mmHg 81%
02:00 +24°C° 0 mm 1 mps 742 mmHg 81%
03:00 +24°C° 0 mm 1 mps 742 mmHg 79%
04:00 +24°C° 0 mm 1 mps 742 mmHg 77%
05:00 +24°C° 0 mm 1 mps 742 mmHg 76%
06:00 +26°C° 0 mm 1 mps 743 mmHg 71%
07:00 +26°C° 0 mm 0 mps 743 mmHg 66%
08:00 +28°C° 0 mm 0 mps 743 mmHg 62%
09:00 +31°C° 0 mm 1 mps 743 mmHg 60%
10:00 +32°C° 0 mm 1 mps 743 mmHg 58%
11:00 +34°C° 0 mm 2 mps 743 mmHg 56%
12:00 +34°C° 0 mm 2 mps 742 mmHg 56%
13:00 +35°C° 0 mm 2 mps 741 mmHg 56%
14:00 +35°C° 0 mm 2 mps 741 mmHg 55%
15:00 +34°C° 0 mm 2 mps 741 mmHg 60%
16:00 +32°C° 0 mm 1 mps 741 mmHg 65%
17:00 +31°C° 0 mm 1 mps 741 mmHg 70%
18:00 +30°C° 0 mm 1 mps 741 mmHg 74%
19:00 +28°C° 0 mm 1 mps 742 mmHg 78%
20:00 +27°C° 0 mm 1 mps 743 mmHg 82%
21:00 +26°C° 0 mm 1 mps 743 mmHg 83%
22:00 +26°C° 0 mm 1 mps 743 mmHg 84%
23:00 +25°C° 0 mm 1 mps 743 mmHg 85%

20 August, Thursday

Time Temperature Precipitation Wind Pressure Humidity
00:00 +25°C° 0 mm 1 mps 743 mmHg 84%
01:00 +25°C° 0 mm 1 mps 742 mmHg 84%
02:00 +24°C° 0 mm 1 mps 742 mmHg 83%
03:00 +24°C° 0 mm 1 mps 742 mmHg 83%
04:00 +24°C° 0 mm 1 mps 742 mmHg 82%
05:00 +24°C° 0 mm 1 mps 742 mmHg 81%
06:00 +26°C° 0 mm 1 mps 742 mmHg 75%
07:00 +26°C° 0 mm 0 mps 743 mmHg 69%
08:00 +28°C° 0 mm 0 mps 743 mmHg 63%
09:00 +31°C° 0 mm 1 mps 743 mmHg 60%
10:00 +32°C° 0 mm 1 mps 742 mmHg 58%
11:00 +35°C° 0 mm 2 mps 742 mmHg 55%
12:00 +35°C° 0 mm 2 mps 741 mmHg 54%
13:00 +35°C° 0 mm 2 mps 740 mmHg 54%
14:00 +35°C° 0 mm 2 mps 739 mmHg 53%
15:00 +35°C° 0 mm 2 mps 739 mmHg 58%
16:00 +33°C° 0 mm 1 mps 739 mmHg 62%
17:00 +32°C° 0 mm 1 mps 739 mmHg 67%
18:00 +30°C° 0.1 mm 1 mps 740 mmHg 73%
19:00 +28°C° 0.1 mm 1 mps 741 mmHg 78%
20:00 +27°C° 0.1 mm 2 mps 742 mmHg 84%
21:00 +26°C° 0.1 mm 1 mps 742 mmHg 86%
22:00 +26°C° 0.1 mm 1 mps 742 mmHg 88%
23:00 +25°C° 0.1 mm 1 mps 742 mmHg 90%
Show more